Evansville, IN

12:45 PM CDT on April 30, 2017 (GMT -0500)
Evansville Regional

Weather History for KEVV - September, 2011

Change the Weather History Date:

Sunday, September 4, 2011

  Actual Average Record
Temperature  
Mean Temperature 74 °F 74 °F  
Max Temperature 79 °F 86 °F 101 °F (1954)
Min Temperature 68 °F 62 °F 46 °F (1952)
Degree Days  
Heating Degree Days 0 0  
Month to date heating degree days 0 0  
Since 1 July heating degree days 0 1  
Cooling Degree Days 9 9  
Month to date cooling degree days 69 37  
Year to date cooling degree days 1574 1236  
Growing Degree Days 24 (Base 50)    
Moisture  
Dew Point 67 °F    
Average Humidity 74    
Maximum Humidity 87    
Minimum Humidity 61    
Precipitation  
Precipitation 0.58 in 0.09 in 1.90 in (1910)
Month to date precipitation 0.58 0.38  
Year to date precipitation 45.56 31.30  
Snow  
Snow 0.00 in 0.00 in 0.00 in ()
Month to date snowfall 0.0 0.0  
Since 1 July snowfall 0.0 0.0  
Since 1 September snowfall 0.0 0.0  
Snow Depth 0.00 in    
Sea Level Pressure  
Sea Level Pressure 29.90 in    
Wind  
Wind Speed 6 mph (North)    
Max Wind Speed 15 mph    
Max Gust Speed 20 mph    
Visibility 7 miles    
Events Rain , Thunderstorm    
T = Trace of Precipitation, MM = Missing Value Source: NWS Daily Summary

Daily Weather History Graph

Daily Weather History Graph

Search for Another Location

Airport or City:

Trip Planner

Search our weather history database for the weather conditions in past years. The results will help you decide how hot, cold, wet, or windy it might be!

Date:

Astronomy

Sep. 04, 2011 Rise Set
Actual Time 6:22 AM CDT 7:15 PM CDT
Civil Twilight 5:55 AM CDT 7:42 PM CDT
Nautical Twilight 5:23 AM CDT 8:13 PM CDT
Astronomical Twilight 4:50 AM CDT 8:46 PM CDT
Moon 1:58 PM CDT (9/4) 11:43 PM CDT (9/4)
Length of Visible Light 13h 46m
Length of Day
12h 53m
Waxing Crescent, 50% of the Moon is Illuminated
Sep 4
Waxing Crescent
Sep 4
First Quarter
Sep 12
Full
Sep 20
Last Quarter
Sep 27
New

Hourly Weather History & Observations

Time (CDT) Temp. Dew Point Humidity Pressure Visibility Wind Dir Wind Speed Gust Speed Precip Events Conditions
12:54 AM 77.0 °F 66.0 °F 69% 29.84 in 10.0 mi NNE 5.8 mph - N/A   Clear
1:54 AM 75.9 °F 66.0 °F 71% 29.83 in 10.0 mi NNE 8.1 mph - N/A   Scattered Clouds
2:54 AM 75.2 °F 66.2 °F 73% 29.86 in 10.0 mi SSW 3.5 mph - N/A   Mostly Cloudy
3:54 AM 78.8 °F 66.2 °F 65% 29.85 in 10.0 mi Calm Calm - N/A   Partly Cloudy
4:54 AM 75.0 °F 66.9 °F 76% 29.84 in 9.0 mi Calm Calm - N/A   Mostly Cloudy
5:54 AM 75.9 °F 66.0 °F 71% 29.84 in 9.0 mi NNW 6.9 mph - N/A   Clear
6:54 AM 75.2 °F 66.2 °F 73% 29.88 in 8.0 mi SE 3.5 mph - N/A   Mostly Cloudy
7:54 AM 73.0 °F 68.0 °F 84% 29.88 in 3.0 mi NNE 10.4 mph - 0.16 in Rain , Thunderstorm Thunderstorms and Rain
8:01 AM 71.6 °F 68.0 °F 88% 29.88 in 0.8 mi NE 12.7 mph - N/A Rain , Thunderstorm Thunderstorms and Rain
8:03 AM 71.6 °F 68.0 °F 88% 29.88 in 1.2 mi North 10.4 mph 18.4 mph 0.19 in Rain , Thunderstorm Thunderstorms and Rain
8:06 AM 71.6 °F 68.0 °F 88% 29.88 in 2.0 mi NNE 10.4 mph 18.4 mph 0.19 in Rain , Thunderstorm Thunderstorms and Rain
8:08 AM 73.4 °F 68.0 °F 83% 29.88 in 3.0 mi North 9.2 mph - 0.19 in Rain , Thunderstorm Thunderstorms and Rain
8:41 AM 73.4 °F 69.8 °F 88% 29.90 in 6.0 mi East 4.6 mph - 0.19 in   Scattered Clouds
8:54 AM 73.0 °F 68.0 °F 84% 29.89 in 7.0 mi NE 4.6 mph - 0.19 in   Mostly Cloudy
9:21 AM 73.4 °F 69.8 °F 88% 29.92 in 6.0 mi Calm Calm - N/A Thunderstorm Mostly Cloudy
9:36 AM 73.4 °F 68.0 °F 83% 29.94 in 6.0 mi South 3.5 mph - N/A   Mostly Cloudy
9:44 AM 73.4 °F 69.8 °F 88% 29.95 in 6.0 mi South 8.1 mph - N/A Thunderstorm Overcast
9:54 AM 73.0 °F 68.0 °F 84% 29.94 in 4.0 mi SSE 5.8 mph - 0.01 in Rain , Thunderstorm Thunderstorms and Rain
10:09 AM 71.6 °F 66.2 °F 83% 29.91 in 3.0 mi NE 12.7 mph - 0.04 in Rain , Thunderstorm Thunderstorms and Rain
10:16 AM 71.6 °F 68.0 °F 88% 29.91 in 7.0 mi NE 8.1 mph - 0.05 in Rain , Thunderstorm Light Rain
10:34 AM 73.4 °F 68.0 °F 83% 29.93 in 6.0 mi Calm Calm - 0.05 in Rain Light Rain
10:54 AM 73.0 °F 68.0 °F 84% 29.92 in 7.0 mi Calm Calm - 0.06 in Rain Light Rain
11:34 AM 73.4 °F 69.8 °F 88% 29.93 in 2.0 mi NW 9.2 mph - 0.02 in Rain , Thunderstorm Thunderstorms and Rain
11:43 AM 73.4 °F 69.8 °F 88% 29.93 in 1.0 mi North 8.1 mph - 0.07 in Rain , Thunderstorm Heavy Thunderstorms and Rain
11:51 AM 71.6 °F 68.0 °F 88% 29.93 in 3.0 mi Variable 3.5 mph - 0.13 in Rain Rain
11:54 AM 71.6 °F 69.8 °F 94% 29.92 in 3.0 mi NNW 3.5 mph - N/A Rain Light Rain
12:54 PM 73.0 °F 69.1 °F 87% 29.89 in 4.0 mi NE 5.8 mph - 0.01 in Rain Rain
1:38 PM 73.4 °F 69.8 °F 88% 29.92 in 6.0 mi SSE 4.6 mph - 0.01 in Rain Light Rain
1:54 PM 73.0 °F 70.0 °F 90% 29.91 in 5.0 mi SSE 5.8 mph - 0.01 in Rain Light Rain
2:54 PM 73.9 °F 70.0 °F 87% 29.89 in 4.0 mi NW 4.6 mph - 0.01 in Rain Light Rain
3:54 PM 73.9 °F 69.1 °F 85% 29.86 in 5.0 mi NW 3.5 mph - 0.00 in Rain Light Rain
4:31 PM 73.4 °F 69.8 °F 88% 29.89 in 9.0 mi SW 4.6 mph - 0.00 in   Mostly Cloudy
4:54 PM 73.9 °F 66.9 °F 79% 29.88 in 5.0 mi North 6.9 mph - 0.00 in   Mostly Cloudy
5:21 PM 73.4 °F 66.2 °F 78% 29.90 in 10.0 mi North 3.5 mph - 0.00 in   Mostly Cloudy
5:39 PM 73.4 °F 66.2 °F 78% 29.90 in 10.0 mi North 5.8 mph - 0.00 in   Mostly Cloudy
5:54 PM 73.4 °F 66.2 °F 78% 29.90 in 10.0 mi North 6.9 mph - N/A   Overcast
6:01 PM 73.4 °F 66.2 °F 78% 29.91 in 10.0 mi North 8.1 mph - N/A   Overcast
6:52 PM 71.6 °F 64.4 °F 78% 29.91 in 10.0 mi North 6.9 mph - N/A   Overcast
6:54 PM 72.0 °F 64.0 °F 76% 29.90 in 10.0 mi North 8.1 mph - N/A   Overcast
7:01 PM 71.6 °F 64.4 °F 78% 29.91 in 10.0 mi North 10.4 mph - N/A   Overcast
7:54 PM 70.0 °F 57.9 °F 65% 29.92 in 10.0 mi North 5.8 mph - N/A   Overcast
8:54 PM 69.1 °F 57.9 °F 68% 29.93 in 10.0 mi North 5.8 mph - N/A   Overcast
9:54 PM 69.1 °F 59.0 °F 70% 29.94 in 10.0 mi WNW 3.5 mph - N/A   Overcast
10:54 PM 69.1 °F 57.9 °F 68% 29.94 in 10.0 mi NNW 5.8 mph - 0.00 in   Overcast
11:54 PM 69.1 °F 55.0 °F 61% 29.93 in 10.0 mi North 10.4 mph - N/A   Overcast